"Pseudo-MPEC" for MHN2334

Created 2024 Dec 9 19:31:12 UT using Find_Orb

Click here for an explanation of pseudo-MPECs

 
 Astrometry: 
     MHN2334*KC2024 11 24.15381 03 21 55.560+53 19 59.05   ~BO82 20.8 GVNEOCPW16
     MHN2334 KC2024 11 24.15891 03 21 54.686+53 19 55.38   ~BO82 20.6 GVNEOCPW16
     MHN2334 KC2024 11 24.16398 03 21 53.926+53 19 52.00   ~BO82 21.1 GVNEOCPW16
     MHN2334 KC2024 11 24.16905 03 21 53.263+53 19 47.86   ~BO82 20.5 GVNEOCPW16
     MHN2334 KC2024 11 25.07163 03 19 56.623+53 07 31.73   ~BP9H 21.3 GVNEOCPW16
     MHN2334 KC2024 11 25.10917 03 19 51.598+53 07 02.21   ~BP9H 21.5 GVNEOCPW16
     MHN2334 KC2024 11 25.14179 03 19 47.206+53 06 35.68   ~BP9H 21.0 GVNEOCPW16
     MHN2334 KC2024 11 25.16906 03 19 43.546+53 06 13.82   ~BP9H 21.6 GVNEOCPW16

Station data:
(W16) Pleasant Groves Observatory  (N34.711888 W86.231310)  US/Alabama.
   Observer M. Holbrook. 0.36-m reflector + CCD.

Orbital elements:  MHN2334
   Perihelion 2025 Oct 3.50389 +/- 214 TT = 12:05:36 (JD 2460952.00389)
Epoch 2024 Nov 25.0 TT = JDT 2460639.5   Earth MOID: 0.3933   Ma: 0.0145
M 189.93757166 +/- 80               (J2000 ecliptic)             AutoNEOCP
n   0.54419299 +/- 0.0559           Peri.  287.02141 +/- 41
a   1.48582417 +/- 0.102            Node   306.59597 +/- 23
e   0.0927252 +/- 0.116             Incl.   15.35313 +/- 3.0
P   1.811/661.518d         H 20.05  G  0.15   U 10.8  SR
q 1.34805076 +/- 0.113    Q 1.62359758 +/- 0.33
From 8 observations 2024 Nov. 24-25 (24.4 hr); mean residual 0".48
Residuals in arcseconds: 
241124 W16  1.3+  .43-    241124 W16  .40-  .22+    241125 W16  .02+  .04-    
241124 W16  .19-  .15-    241125 W16  .25-  .56-    241125 W16  .33+  .54+    
241124 W16  .73-  .41+    241125 W16  .11-  .00     

Ephemerides (geocentric):
Date (UTC) HH   RA             Dec           delta  r     elong  mag " sig PA
---- --------  ------------   ------------  ------ ------ -----  --- --------
2024 12 09 20  02 54 56.098   +48 34 56.43  .71733 1.6179 143.3 21.4 1692 130
2024 12 09 21  02 54 53.245   +48 34 01.96  .71742 1.6179 143.3 21.4 1701 130
2024 12 09 22  02 54 50.401   +48 33 07.46  .71751 1.6179 143.3 21.4 1710 130
2024 12 09 23  02 54 47.565   +48 32 12.93  .71761 1.6179 143.3 21.4 1719 130
2024 12 10 00  02 54 44.737   +48 31 18.37  .71770 1.6179 143.2 21.4 1727 130
2024 12 10 01  02 54 41.918   +48 30 23.79  .71779 1.6179 143.2 21.4 1736 130
2024 12 10 02  02 54 39.108   +48 29 29.18  .71789 1.6178 143.2 21.4 1745 130
2024 12 10 03  02 54 36.306   +48 28 34.55  .71798 1.6178 143.2 21.4 1754 130
2024 12 10 04  02 54 33.512   +48 27 39.88  .71808 1.6178 143.2 21.4 1762 130
2024 12 10 05  02 54 30.727   +48 26 45.20  .71817 1.6178 143.1 21.4 1771 130
2024 12 10 06  02 54 27.951   +48 25 50.48  .71827 1.6178 143.1 21.4 1780 130
2024 12 10 07  02 54 25.183   +48 24 55.74  .71837 1.6178 143.1 21.4 1789 130
2024 12 10 08  02 54 22.423   +48 24 00.97  .71846 1.6178 143.1 21.4 1798 130
2024 12 10 09  02 54 19.672   +48 23 06.18  .71856 1.6177 143.1 21.4 1807 131
2024 12 10 10  02 54 16.930   +48 22 11.36  .71866 1.6177 143.0 21.4 1815 131
2024 12 10 11  02 54 14.196   +48 21 16.51  .71875 1.6177 143.0 21.4 1824 131
2024 12 10 12  02 54 11.470   +48 20 21.64  .71885 1.6177 143.0 21.4 1833 131
2024 12 10 13  02 54 08.753   +48 19 26.75  .71895 1.6177 143.0 21.4 1842 131
2024 12 10 14  02 54 06.045   +48 18 31.83  .71905 1.6177 142.9 21.4 1851 131
2024 12 10 15  02 54 03.345   +48 17 36.88  .71914 1.6177 142.9 21.4 1860 131
2024 12 10 16  02 54 00.653   +48 16 41.91  .71924 1.6176 142.9 21.4 1869 131
2024 12 10 17  02 53 57.970   +48 15 46.92  .71934 1.6176 142.9 21.4 1878 131
2024 12 10 18  02 53 55.296   +48 14 51.90  .71944 1.6176 142.9 21.4 1887 131
2024 12 10 19  02 53 52.630   +48 13 56.86  .71954 1.6176 142.8 21.4 1896 131
2024 12 10 20  02 53 49.972   +48 13 01.79  .71964 1.6176 142.8 21.4 1905 131
2024 12 10 21  02 53 47.323   +48 12 06.70  .71974 1.6176 142.8 21.4 1914 131
2024 12 10 22  02 53 44.683   +48 11 11.58  .71984 1.6175 142.8 21.4 1924 131
2024 12 10 23  02 53 42.051   +48 10 16.44  .71994 1.6175 142.7 21.4 1933 131
2024 12 11 00  02 53 39.427   +48 09 21.28  .72004 1.6175 142.7 21.4 1942 131
2024 12 11 01  02 53 36.812   +48 08 26.10  .72014 1.6175 142.7 21.4 1951 131
2024 12 11 02  02 53 34.206   +48 07 30.89  .72024 1.6175 142.7 21.4 1960 131
2024 12 11 03  02 53 31.608   +48 06 35.66  .72035 1.6175 142.7 21.4 1969 131
2024 12 11 04  02 53 29.018   +48 05 40.40  .72045 1.6175 142.6 21.4 1979 131
2024 12 11 05  02 53 26.437   +48 04 45.12  .72055 1.6174 142.6 21.4 1988 131
2024 12 11 06  02 53 23.865   +48 03 49.82  .72065 1.6174 142.6 21.4 1997 131
2024 12 11 07  02 53 21.301   +48 02 54.50  .72076 1.6174 142.6 21.4 2006 131
2024 12 11 08  02 53 18.745   +48 01 59.16  .72086 1.6174 142.5 21.4 2016 131
2024 12 11 09  02 53 16.198   +48 01 03.79  .72096 1.6174 142.5 21.4 2025 131
2024 12 11 10  02 53 13.659   +48 00 08.40  .72107 1.6174 142.5 21.4 2034 131
2024 12 11 11  02 53 11.129   +47 59 12.99  .72117 1.6174 142.5 21.4 2043 131
2024 12 11 12  02 53 08.608   +47 58 17.56  .72128 1.6173 142.4 21.4 2053 131
2024 12 11 13  02 53 06.095   +47 57 22.11  .72138 1.6173 142.4 21.4 2062 131
2024 12 11 14  02 53 03.590   +47 56 26.63  .72149 1.6173 142.4 21.4 2071 131
2024 12 11 15  02 53 01.094   +47 55 31.13  .72159 1.6173 142.4 21.4 2081 131
2024 12 11 16  02 52 58.606   +47 54 35.62  .72170 1.6173 142.4 21.4 2090 131
2024 12 11 17  02 52 56.127   +47 53 40.08  .72180 1.6173 142.3 21.4 2100 132
2024 12 11 18  02 52 53.657   +47 52 44.52  .72191 1.6173 142.3 21.4 2109 132
2024 12 11 19  02 52 51.194   +47 51 48.94  .72202 1.6172 142.3 21.4 2118 132